Location: ???? ????
(41.4149°N, 22.8816°E)
Time: 15:05:02
(UTC+00:00)

Cosmos 1066 Rocket - Pass Details

Date: 14 July 2020
Orbit: 799 x 893 km, 81.2° (Epoch: 04 August)

Event Time Altitude Azimuth Distance (km) Brightness Sun altitude
Rises 01:06:11 0° 350° (N) 3,512 8.1 -17.8°
Reaches altitude 10° 01:08:39 10° 351° (N) 2,571 7.3 -17.5°
Maximum altitude 01:14:33 87° 80° (E) 900 4.3 -16.9°
Enters shadow 01:20:19 10° 171° (S) 2,521 6.3 -16.2°
